Location: Newark
(40.3500°N, 15.2333°E)
Time: 10:36:28
(UTC+00:00)

SR - Visible Passes

Search period start: 22 January 2020 00:00
Search period end: 01 February 2020 00:00
Orbit: 574 x 882 km, 66.7° (Epoch: 21 January)

Date Brightness Start Highest point End Pass type
(mag) Time Alt. Az. Time Alt. Az. Time Alt. Az.
22 Jan ? 05:16:02 10° N 05:19:25 16° NE 05:22:39 10° ENE visible
24 Jan ? 05:18:04 10° N 05:22:38 25° NE 05:26:55 10° ESE visible
25 Jan ? 04:29:12 10° N 04:32:23 15° NE 04:35:26 10° ENE visible
26 Jan ? 05:20:25 10° NNW 05:25:40 42° NE 05:30:30 10° SE visible
27 Jan ? 04:31:11 10° N 04:35:37 24° NE 04:39:47 10° E visible
28 Jan ? 03:42:24 10° N 03:45:21 14° NE 03:48:11 10° ENE visible
28 Jan ? 05:22:59 10° NNW 05:28:31 76° ENE 05:33:31 10° SE visible
29 Jan ? 04:33:30 10° NNW 04:38:41 39° NE 04:43:26 10° ESE visible
30 Jan ? 03:44:45 12° N 03:48:36 22° NE 03:52:39 10° E visible
30 Jan ? 05:25:50 10° NW 05:31:10 58° WSW 05:36:01 10° SSE visible
31 Jan ? 02:56:51 12° NNE 02:58:19 14° NE 03:00:56 10° ENE visible
31 Jan ? 04:36:18 11° NNW 04:41:33 71° ENE 04:46:30 10° SE visible
31 Jan ? 19:04:08 10° S 19:04:15 11° S 19:04:15 11° S visible
